TA6AIA-13 Weather Reports


time (UTC)temp
C
wind
direction
speed
KPH
gust
KPH
rain 1hr
cm
rain 24hr
cm
rain mn
cm
humidity
%
barometer
mb
20260508100003 23 315 0.0 0.0 0.00 0.00 0.00 66 1019.7
20260508093003 22 315 0.0 0.0 0.00 0.00 0.00 89 1020.0
20260508090004 22 270 0.0 0.0 0.00 0.00 0.00 81 1020.1
20260508083005 20 270 0.0 0.0 0.00 0.00 0.00 10 1020.2
20260508080005 18 270 0.0 0.0 0.00 0.00 0.00 10 1020.2
20260508070004 18 270 0.0 0.0 0.00 0.00 0.00 10 1020.2
20260508063005 16 270 0.0 0.0 0.00 0.00 0.00 10 1020.5
20260508060002 17 315 0.0 0.0 0.00 0.00 0.00 10 1020.4
20260508053004 16 270 0.0 0.0 0.00 0.00 0.00 10 1020.5
20260508050005 15 315 0.0 0.0 0.00 0.00 0.00 10 1020.5
20260508043004 12 270 0.0 0.0 0.00 0.00 0.00 10 1020.3
20260508040004 11 270 0.0 0.0 0.00 0.00 0.00 10 1020.2
20260508033005 10 270 0.0 0.0 0.00 0.00 0.00 10 1020.0
20260508030004 9 270 0.0 0.0 0.00 0.00 0.00 10 1019.8
20260508023005 9 270 0.0 0.0 0.00 0.00 0.00 10 1019.8
20260508020003 10 270 0.0 0.0 0.00 0.00 0.00 10 1019.8
20260508013003 10 270 0.0 0.0 0.00 0.00 0.00 10 1019.7
20260508010004 10 270 0.0 0.0 0.00 0.00 0.00 10 1019.8
20260508003003 10 270 0.0 0.0 0.00 0.00 0.00 10 1019.8
20260508000004 11 270 0.0 0.0 0.00 0.00 0.00 10 1019.7
20260507233003 11 270 0.0 0.0 0.00 0.00 0.00 10 1019.7
20260507230004 11 270 0.0 0.0 0.00 0.00 0.00 10 1019.6
20260507223003 12 270 0.0 0.0 0.00 0.00 0.00 10 1019.6
20260507220004 12 315 0.0 0.0 0.00 0.00 0.00 10 1019.7
20260507213005 11 270 0.0 0.0 0.00 0.00 0.00 10 1019.7
20260507210005 11 315 0.0 0.0 0.00 0.00 0.00 10 1019.8
20260507203003 11 270 0.0 0.0 0.00 0.00 0.00 10 1019.8
20260507200004 12 270 0.0 0.0 0.00 0.00 0.00 10 1019.9
20260507193002 12 270 0.0 0.0 0.00 0.00 0.00 10 1019.9
20260507190004 12 270 0.0 0.0 0.00 0.00 0.00 10 1020.0
20260507183002 13 270 0.0 0.0 0.00 0.00 0.00 10 1020.1
20260507180002 13 270 0.0 0.0 0.00 0.00 0.00 10 1020.1
20260507173003 14 270 0.0 0.0 0.00 0.00 0.00 10 1020.1
20260507171301 15 270 0.0 0.0 0.00 0.00 0.00 10 1020.1
20260507165811 15 270 0.0 0.0 0.00 0.00 0.00 10 1020.1
20260507164301 16 270 0.0 0.0 0.00 0.00 0.00 10 1019.9
20260507162821 16 270 0.0 0.0 0.00 0.00 0.00 10 1019.8
20260507160003 16 270 0.0 0.0 0.00 0.00 0.00 10 1019.9
20260507153005 16 270 0.0 0.0 0.00 0.00 0.00 10 1020.0
20260507150004 16 270 0.0 0.0 0.00 0.00 0.00 10 1020.2
20260507143212 17 270 0.0 0.0 0.00 0.00 0.00 10 1020.2
20260507130003 17 270 0.0 0.0 0.00 0.00 0.00 10 1020.3
20260507123003 18 270 0.0 0.0 0.00 0.00 0.00 10 1020.3
20260507120004 23 270 0.0 0.0 0.00 0.00 0.00 77 1020.8
20260507113003 20 270 0.0 0.0 0.00 0.00 0.00 10 1021.0
20260507110003 18 270 0.0 0.0 0.00 0.00 0.00 10 1021.2
20260507103003 16 270 0.0 0.0 0.00 0.00 0.00 10 1021.3